Curtin, Western Australia

6:58 PM AWST on July 26, 2016 (GMT +0800)
Curtin

Weather History for YCIN - June, 2012

Change the Weather History Date:

Friday, June 29, 2012

  Actual Average Record
Temperature  
Mean Temperature 73 °F -  
Max Temperature 88 °F - - ()
Min Temperature 58 °F - - ()
Cooling Degree Days 8    
Growing Degree Days 23 (Base 50)    
Moisture  
Dew Point 38 °F    
Average Humidity 27    
Maximum Humidity 42    
Minimum Humidity 10    
Precipitation  
Precipitation 0.00 in - - ()
Sea Level Pressure  
Sea Level Pressure 29.93 in    
Wind  
Wind Speed 7 mph ()    
Max Wind Speed 10 mph    
Max Gust Speed -    
T = Trace of Precipitation, MM = Missing Value Source: Averaged Metar Reports

Daily Weather History Graph

Daily Weather History Graph

Search for Another Location

Airport or City:

Trip Planner

Search our weather history database for the weather conditions in past years. The results will help you decide how hot, cold, wet, or windy it might be!

Date:

Astronomy

Jun. 29, 2012 Rise Set
Actual Time 6:15 AM AWST 5:20 PM AWST
Civil Twilight 5:51 AM AWST 5:44 PM AWST
Nautical Twilight 5:24 AM AWST 6:11 PM AWST
Astronomical Twilight 4:58 AM AWST 6:38 PM AWST
Moon 1:02 PM AWST (6/29) 1:13 AM AWST (6/29)
Length of Visible Light 11h 52m
Length of Day
11h 05m
Waxing Gibbous, 72% of the Moon is Illuminated
Jun 29
Waxing Gibbous
Jul 4
Full
Jul 11
Last Quarter
Jul 19
New
Jul 26
First Quarter

Hourly Weather History & Observations

Time (AWST) Temp. Dew Point Humidity Pressure Visibility Wind Dir Wind Speed Gust Speed Precip Events Conditions
12:00 AM 68 °F 36 °F 19% 29.95 in - SE 9.2 mph - -  
12:00 AM 68.0 °F 35.6 °F 30% 29.95 in - SE 9.2 mph - N/A   Unknown
1:00 AM 66.2 °F 33.8 °F 30% 29.95 in - SE 8.1 mph - N/A   Unknown
2:00 AM 66.2 °F 33.8 °F 30% 29.92 in - ESE 8.1 mph - N/A   Unknown
3:00 AM 65 °F 34 °F 20% 29.93 in - SE 9.2 mph - -  
3:00 AM 66.2 °F 33.8 °F 30% 29.92 in - SE 9.2 mph - N/A   Unknown
4:00 AM 62.6 °F 33.8 °F 34% 29.92 in - SE 6.9 mph - N/A   Unknown
5:00 AM 59.0 °F 35.6 °F 42% 29.92 in - SSE 6.9 mph - N/A   Unknown
6:00 AM 63 °F 36 °F 25% 29.95 in - ESE 9.2 mph - -  
6:00 AM 62.6 °F 35.6 °F 37% 29.95 in - ESE 9.2 mph - N/A   Unknown
7:00 AM 62.6 °F 37.4 °F 39% 29.95 in - ESE 9.2 mph - N/A   Unknown
8:00 AM 69.8 °F 41.0 °F 35% 29.98 in - SE 8.1 mph - N/A   Unknown
9:00 AM 75 °F 44 °F 22% 29.97 in - ESE 8.1 mph - -  
9:00 AM 75.2 °F 42.8 °F 31% 29.98 in - ESE 8.1 mph - N/A   Unknown
10:00 AM 82.4 °F 44.6 °F 26% 29.98 in - ESE 8.1 mph - N/A   Unknown
11:00 AM 84.2 °F 42.8 °F 23% 29.95 in - ESE 9.2 mph - N/A   Unknown
12:00 PM 85 °F 41 °F 12% 29.92 in - SE 10.4 mph - -  
12:00 PM 84.2 °F 41.0 °F 22% 29.92 in - SE 10.4 mph - N/A   Unknown
1:00 PM 86.0 °F 37.4 °F 18% 29.89 in - SE 9.2 mph - N/A   Unknown
2:00 PM 86.0 °F 37.4 °F 18% 29.86 in - SE 9.2 mph - N/A   Unknown
3:00 PM 87 °F 38 °F 10% 29.86 in - SE 9.2 mph - -  
3:00 PM 87.8 °F 39.2 °F 18% 29.86 in - SE 9.2 mph - N/A   Unknown
4:00 PM 86.0 °F 37.4 °F 18% 29.86 in - SE 9.2 mph - N/A   Unknown
5:00 PM 82.4 °F 37.4 °F 20% 29.89 in - SSE 6.9 mph - N/A   Unknown
6:00 PM 70 °F 38 °F 20% 29.89 in - SE 4.6 mph - -  
6:00 PM 69.8 °F 37.4 °F 31% 29.89 in - SE 4.6 mph - N/A   Unknown
7:00 PM 68.0 °F 37.4 °F 33% 29.92 in - SE 5.8 mph - N/A   Unknown
8:00 PM 64.4 °F 37.4 °F 37% 29.92 in - SSE 5.8 mph - N/A   Unknown
9:00 PM 62 °F 37 °F 28% 29.94 in - SSE 4.6 mph - -  
9:00 PM 60.8 °F 37.4 °F 42% 29.95 in - SSE 4.6 mph - N/A   Unknown
10:00 PM 60.8 °F 37.4 °F 42% 29.95 in - SSE 5.8 mph - N/A   Unknown
11:00 PM 66.2 °F 33.8 °F 30% 29.95 in - SSE 8.1 mph - N/A   Unknown